Location: Fuglau
(48.6333°N, 15.5500°E)
Time: 19:59:01
(UTC+00:00)

USA 116 - Pass Details

Date: 27 February 2020
Orbit: 405 x 834 km, 97.9° (Epoch: 18 November)

Event Time Altitude Azimuth Distance (km) Brightness Sun altitude
Rises 17:50:07 0° 11° (N) 2,748 7.2 -12.8°
Reaches altitude 10° 17:52:09 10° 9° (N) 1,909 6.4 -13.1°
Maximum altitude 17:56:18 71° 286° (WNW) 676 4.3 -13.8°
Drops below altitude 10° 18:00:57 10° 203° (SSW) 2,140 7.0 -14.6°
Sets 18:03:20 0° 202° (SSW) 3,112 7.8 -15.0°
